Regional Weather Roundup
Issued by NWS

Home | Current Version | Previous Version | Graphics & Text | Print | Product List | Glossary On
Versions: 1 2 3 4 5 6 7 8 9 10 11 12 13 14 15 16 17 18 19 20 21 22 23 24 25 26 27 28 29 30 31 32 33 34 35 36 37 38 39 40 41 42 43 44 45 46 47 48 49 50
000
ASUS43 KFSD 050402
RWRSD

WEATHER ROUNDUP FOR SOUTH DAKOTA
NATIONAL WEATHER SERVICE SIOUX FALLS SD
1100 PM CDT FRI SEP 04 2015

NOTE: "FAIR" INDICATES FEW OR NO CLOUDS BELOW 12,000 FEET WITH NO
SIGNIFICANT WEATHER AND/OR OBSTRUCTIONS TO VISIBILITY.


SDZ001>005-009-010-012>017-050500-
NORTHWEST AND NORTH CENTRAL SOUTH DAKOTA

CITY           SKY/WX    TMP DP  RH WIND       PRES   REMARKS
BUFFALO          N/A     71  63  75 NE10      29.76F
FAITH            N/A     73  58  59 E12       29.81S
MOBRIDGE       MOCLDY    76  73  91 E14       29.78S
$$

SDZ012>016-024>037-041>051-057-063-072>074-050500-
SOUTHWEST AND SOUTH CENTRAL SOUTH DAKOTA

CITY           SKY/WX    TMP DP  RH WIND       PRES   REMARKS
RAPID CTY ARPT PTCLDY    70  59  68 SE3       29.81F
PIERRE         MOCLDY    74  66  76 E7        29.76S
CUSTER         PTCLDY    73  42  32 SE5       29.98F
PHILIP         PTCLDY    71  65  81 E8        29.77F
PINE RIDGE     MOCLDY    72  51  47 NE5       29.83S
WINNER         FAIR      80  63  55 S10       29.78F
$$

SDZ004>011-016>023-039-040-050500-
NORTHEAST SOUTH DAKOTA

CITY           SKY/WX    TMP DP  RH WIND       PRES   REMARKS
ABERDEEN       CLEAR     73  69  87 SE6       29.80S
WATERTOWN      PTCLDY    76  70  82 S14G22    29.85S
BROOKINGS      MOCLDY    77  70  78 S16       29.88F
$$

SDZ017-020-022-023-036>040-048>070-050500-
SOUTHEAST SOUTH DAKOTA

CITY           SKY/WX    TMP DP  RH WIND       PRES   REMARKS
SIOUX FALLS    CLEAR     78  70  76 SE15      29.86S
HURON          MOCLDY    77  72  84 SE10      29.79S
MITCHELL       MOCLDY    77  72  84 SE8       29.80S
YANKTON        CLEAR     77  70  78 S14       29.82S
$$

ABBREVIATIONS USED IN REMARKS
   TC - TEMPERATURE IN CELSIUS
  WCI - WIND CHILL INDEX
   HX - HEAT INDEX
  VSB - VISIBILITY




USA.gov is the U.S. government's official web portal to all federal, state and local government web resources and services.